Henderson, KY

10:59 AM CST on December 12, 2019 (GMT -0600)
Henderson City-County

Weather History for KEHR - October, 2019

Change the Weather History Date:

Tuesday, October 29, 2019

  Actual Average Record
Temperature  
Mean Temperature 54 °F -  
Max Temperature 59 °F 65 °F 84 °F (2004)
Min Temperature 50 °F 43 °F 22 °F (1952)
Degree Days  
Heating Degree Days 10    
Growing Degree Days 4 (Base 50)    
Moisture  
Dew Point 51 °F    
Average Humidity 84    
Maximum Humidity 94    
Minimum Humidity 77    
Precipitation  
Precipitation 0.00 in - - ()
Sea Level Pressure  
Sea Level Pressure 30.16 in    
Wind  
Wind Speed 7 mph (WNW)    
Max Wind Speed 13 mph    
Max Gust Speed -    
Visibility 10 miles    
Events      
Averages and records for this station are not official NWS values.
T = Trace of Precipitation, MM = Missing Value Source: NWS Daily Summary

Daily Weather History Graph

Daily Weather History Graph

Search for Another Location

Airport or City:

Astronomy

Oct. 29, 2019 Rise Set
Actual Time 7:12 AM CDT 5:55 PM CDT
Civil Twilight 6:45 AM CDT 6:22 PM CDT
Nautical Twilight 6:14 AM CDT 6:53 PM CDT
Astronomical Twilight 5:44 AM CDT 7:23 PM CDT
Moon 8:45 AM CDT (10/29) 7:21 PM CDT (10/29)
Length of Visible Light 11h 36m
Length of Day
10h 42m
Waxing Crescent, 3% of the Moon is Illuminated
Oct 29
Waxing Crescent
Nov 4
First Quarter
Nov 12
Full
Nov 19
Last Quarter
Nov 26
New

Hourly Weather History & Observations

Time (CDT) Temp. Dew Point Humidity Pressure Visibility Wind Dir Wind Speed Gust Speed Precip Events Conditions
12:56 AM 55.9 °F 51.1 °F 84% 30.07 in 10.0 mi South 8.1 mph - N/A   Overcast
1:56 AM 55.9 °F 52.0 °F 87% 30.08 in 10.0 mi SSW 6.9 mph - N/A   Overcast
2:56 AM 55.9 °F 52.0 °F 87% 30.07 in 10.0 mi South 5.8 mph - N/A   Overcast
3:56 AM 55.9 °F 51.1 °F 84% 30.07 in 10.0 mi SW 6.9 mph - N/A   Overcast
4:56 AM 55.9 °F 51.1 °F 84% 30.08 in 10.0 mi SW 8.1 mph - N/A   Overcast
5:56 AM 55.9 °F 51.1 °F 84% 30.10 in 10.0 mi SSW 5.8 mph - N/A   Overcast
6:56 AM 55.0 °F 51.1 °F 86% 30.11 in 10.0 mi SSW 6.9 mph - N/A   Overcast
7:56 AM 55.9 °F 51.1 °F 84% 30.14 in 10.0 mi SW 8.1 mph - N/A   Overcast
8:56 AM 55.9 °F 52.0 °F 87% 30.17 in 10.0 mi SW 6.9 mph - N/A   Overcast
9:56 AM 57.0 °F 52.0 °F 83% 30.19 in 10.0 mi SW 6.9 mph - N/A   Overcast
10:08 AM 57.2 °F 51.8 °F 82% 30.18 in 10.0 mi SW 6.9 mph - N/A   Overcast
10:39 AM 57.2 °F 51.8 °F 82% 30.18 in 10.0 mi SSW 4.6 mph - N/A   Overcast
11:56 AM 57.9 °F 53.1 °F 84% 30.19 in 10.0 mi West 6.9 mph - N/A   Overcast
12:53 PM 57.2 °F 53.6 °F 88% 30.18 in 9.0 mi NW 12.7 mph - N/A   Overcast
12:56 PM 55.9 °F 53.1 °F 90% 30.18 in 9.0 mi NW 10.4 mph - N/A   Overcast
1:03 PM 55.4 °F 53.6 °F 94% 30.18 in 10.0 mi NW 11.5 mph - N/A   Overcast
1:38 PM 55.4 °F 51.8 °F 88% 30.18 in 10.0 mi NW 11.5 mph - N/A   Overcast
1:56 PM 55.0 °F 51.1 °F 86% 30.19 in 10.0 mi NW 9.2 mph - N/A   Overcast
2:14 PM 55.4 °F 51.8 °F 88% 30.19 in 10.0 mi North 4.6 mph - N/A   Overcast
2:56 PM 57.0 °F 52.0 °F 83% 30.19 in 10.0 mi Calm Calm - N/A   Overcast
4:23 PM 59.0 °F 51.8 °F 77% 30.18 in 10.0 mi Calm Calm - N/A   Scattered Clouds
4:45 PM 59.0 °F 51.8 °F 77% 30.18 in 10.0 mi Calm Calm - N/A   Mostly Cloudy
4:56 PM 59.0 °F 52.0 °F 78% 30.18 in 10.0 mi North 3.5 mph - N/A   Overcast
5:56 PM 57.9 °F 52.0 °F 81% 30.17 in 10.0 mi NNW 3.5 mph - N/A   Overcast
6:56 PM 54.0 °F 48.0 °F 80% 30.18 in 10.0 mi North 6.9 mph - N/A   Overcast
7:56 PM 52.0 °F 46.9 °F 83% 30.17 in 10.0 mi North 12.7 mph - N/A   Overcast
8:56 PM 51.1 °F 46.0 °F 83% 30.18 in 10.0 mi NNE 10.4 mph - N/A   Overcast
9:40 PM 51.8 °F 46.4 °F 82% 30.18 in 10.0 mi North 6.9 mph - N/A   Overcast
9:56 PM 51.1 °F 46.0 °F 83% 30.18 in 10.0 mi North 6.9 mph - N/A   Overcast
10:56 PM 50.0 °F 46.0 °F 86% 30.18 in 10.0 mi North 5.8 mph - N/A   Mostly Cloudy
11:30 PM 50.0 °F 46.4 °F 87% 30.16 in 10.0 mi NNE 8.1 mph - N/A   Mostly Cloudy
11:56 PM 50.0 °F 46.0 °F 86% 30.16 in 10.0 mi NE 6.9 mph - N/A   Mostly Cloudy